RH
78 79 81 82 84 83 81 84 84 87 95 98 97 95 94 91 90 88 86 85 83 83 80 76 74 84 53 34 37 25 56 49 29 23 18 20 22 24 26 26 21 21 21 21 20 19 16
80 82 81 82 81 77 75 76 80 83 87 92 98 98 97 95 94 92 89 86 85 85 83 78 74 82 35 59 25 20 28 25 25 19 19 18 23 24 27 27 26 25 25 23 20 19 18
78 78 85 82 82 79 75 78 78 80 81 87 91 94 96 97 95 94 92 88 86 86 82 78 68 74 48 44 30 33 28 25 21 19 22 22 23 23 28 25 26 25 25 23 20 21 20
74 79 84 84 83 85 82 80 78 78 80 82 86 88 92 98 97 96 94 90 89 86 83 74 67 75 52 30 39 38 31 27 26 21 20 21 22 26 29 27 26 31 30 28 19 21 18
75 77 79 79 80 81 85 85 81 78 78 79 81 84 92 97 97 96 94 91 89 84 81 80 79 71 66 45 42 26 26 25 25 22 23 14 21 29 28 31 22 31 25 31 24 19 20
74 74 75 74 74 76 79 82 82 79 76 79 80 83 86 97 96 96 93 91 89 82 59 57 60 72 51 48 30 23 29 22 21 23 23 27 35 35 40 26 26 29 39 40 32 17 18
67 71 72 73 68 65 73 76 80 80 70 76 81 82 85 92 97 94 78 79 81 76 81 71 69 63 51 38 34 22 21 18 20 23 28 35 37 34 25 32 28 34 35 32 27 19 24
72 72 68 62 62 60 61 65 77 79 78 79 81 83 86 88 91 83 82 84 79 61 76 56 57 59 51 45 54 46 19 24 26 28 29 33 40 28 30 32 35 39 40 39 30 22 23
77 76 72 63 67 63 63 65 75 81 80 77 80 83 90 86 83 86 88 81 57 60 86 70 58 60 56 50 59 53 22 25 28 30 31 30 28 28 31 37 38 40 40 35 28 28 37
80 79 74 70 66 65 69 60 64 72 79 80 78 85 87 81 86 86 90 77 53 73 87 55 63 53 51 48 51 41 36 22 31 31 31 34 28 27 31 34 35 44 33 31 28 37 41
80 78 75 75 70 72 75 71 69 70 80 80 79 86 89 75 91 90 80 74 74 59 38 37 62 41 47 48 37 26 30 27 30 29 30 39 35 37 36 32 31 38 33 34 32 42 51
79 78 78 77 75 74 71 74 76 78 81 83 81 87 86 89 94 87 74 78 74 70 35 48 54 59 63 56 43 29 30 27 28 30 31 34 29 29 29 29 30 33 43 50 57 55 70
78 81 78 80 78 74 75 78 82 83 82 86 84 88 85 82 89 92 75 76 82 67 36 44 55 44 44 52 55 33 36 40 42 45 48 35 31 25 27 33 28 38 47 71 71 85 59
82 83 79 80 80 75 81 85 84 84 83 83 86 89 87 83 92 82 79 87 73 39 53 43 45 46 46 42 47 50 40 42 41 43 53 56 58 41 37 30 32 40 38 62 59 63 60
78 79 79 80 81 82 85 86 86 85 82 77 84 99 97 93 90 81 86 99 54 54 48 52 31 58 60 47 48 50 48 42 38 42 52 67 57 44 38 37 33 48 53 34 54 67 81
79 78 80 79 81 85 87 87 87 84 83 79 96 99 99 91 90 88 96 84 74 56 47 52 46 45 62 61 59 55 48 42 43 39 36 47 58 40 38 44 35 38 40 70 89 93 89
80 78 78 80 80 82 87 86 87 85 84 84 94 96 87 91 92 98 95 85 69 50 49 54 63 67 72 68 62 61 50 43 42 42 41 54 64 55 46 56 66 65 66 68 66 78 88
78 81 83 82 81 82 86 86 86 86 86 86 94 97 94 89 99 98 86 78 65 59 57 58 66 63 70 72 73 69 63 48 40 43 49 49 72 85 53 40 42 60 72 73 96 91 88
78 78 78 80 81 82 87 87 86 87 85 98 97 96 95 87 93 92 82 63 59 67 64 65 65 70 83 84 80 78 62 48 47 49 56 61 84 85 71 63 57 69 77 81 96 100 96
78 77 80 80 80 84 85 86 86 85 83 95 97 99 98 99 88 83 79 72 74 56 61 60 66 68 74 92 85 85 76 64 70 66 64 64 74 72 80 74 86 88 77 76 90 98 92
79 79 81 80 79 82 84 86 87 86 81 95 99 96 88 98 98 97 81 78 75 72 60 70 80 74 79 93 88 76 82 66 62 72 76 82 82 88 80 79 86 98 98 90 98 91 99
80 82 82 80 80 84 86 85 87 86 85 98 100 98 98 93 88 96 90 80 82 68 71 75 73 62 67 83 74 83 85 83 76 81 85 89 94 98 95 89 89 98 95 94 93 97 98
81 81 81 82 81 81 84 84 85 86 86 98 98 96 96 86 88 97 85 82 79 65 63 58 59 64 88 66 55 53 49 48 63 74 97 95 98 98 93 92 98 99 92 94 85 85 78
80 82 83 83 82 83 83 83 83 85 86 96 98 98 100 94 98 90 78 74 77 70 75 64 61 73 69 56 63 68 75 64 70 82 87 98 98 98 97 96 97 76 76 74 81 74 76
84 81 80 82 83 81 82 82 84 84 86 97 98 99 99 99 89 84 92 95 89 86 95 89 82 71 72 83 99 99 98 95 92 82 79 73 96 98 97 96 78 66 74 80 81 73 74
85 82 79 81 82 82 84 83 84 84 83 96 96 96 99 100 98 73 87 83 92 92 94 90 71 69 80 99 99 97 87 92 89 81 66 71 80 98 98 90 90 71 68 64 62 84 82
80 77 82 83 82 84 86 84 84 84 83 94 99 96 98 99 83 84 98 95 93 98 99 92 84 88 86 99 98 98 93 71 90 84 95 98 100 97 98 96 90 68 67 60 80 74 83
81 81 82 82 82 86 91 87 86 85 85 91 97 97 96 99 90 81 79 94 92 96 99 96 92 95 99 99 98 97 94 82 88 70 86 86 96 98 98 97 93 68 68 74 74 86 81
84 84 80 83 80 85 89 86 88 88 86 90 99 94 92 98 95 92 87 80 68 75 87 91 84 95 97 98 95 88 86 88 79 92 74 91 78 88 83 85 82 86 84 79 76 80 82
Wind_Speed
3 2 3 3 2 3 1 3 5 6 6 8 9 10 9 8 7 6 6 7 9 10 13 16 18 21 8 5 7 3 2 3 3 4 6 4 6 3 3 2 5 2 3 5 5 8 6
4 3 4 4 3 2 1 3 4 5 7 6 7 8 9 8 8 7 7 6 8 10 11 15 16 16 3 5 1 5 2 3 2 3 3 5 2 2 1 2 1 3 4 7 7 6 4
7 5 7 5 4 2 2 1 3 5 6 7 7 8 7 8 7 7 7 6 8 9 9 13 12 4 1 14 2 5 1 2 1 1 2 1 1 3 2 2 2 3 6 6 4 2 7
7 4 7 5 4 3 3 2 1 3 6 6 7 5 9 8 7 7 7 5 8 8 11 8 10 2 8 4 3 7 2 3 1 1 2 1 2 3 1 3 5 3 4 4 2 2 2
8 9 8 7 5 4 3 5 5 1 3 5 6 8 8 5 6 6 5 6 10 6 9 9 2 2 10 9 2 5 6 4 2 1 2 2 4 3 5 4 5 6 3 3 8 2 1
10 6 6 6 4 3 3 3 3 7 3 3 4 5 7 4 4 3 4 6 6 6 2 2 2 3 7 3 3 1 2 4 2 2 4 4 5 3 3 4 4 4 3 5 4 4 3
10 8 8 10 7 4 5 3 2 7 6 6 1 4 6 3 4 2 3 3 5 3 1 8 4 4 5 7 3 2 3 4 4 4 2 3 3 6 10 7 2 2 3 4 6 6 2
12 10 8 11 8 7 6 2 3 5 5 4 2 2 5 3 4 1 3 2 1 2 8 9 12 10 9 3 4 4 5 6 5 6 5 2 6 11 2 5 4 3 4 6 8 6 6
14 14 13 11 9 9 6 3 2 1 5 5 2 1 3 5 4 4 2 2 2 1 3 8 5 5 6 9 8 10 6 3 4 5 6 8 5 4 5 3 5 5 5 5 7 3 2
15 13 13 10 10 8 7 2 3 3 6 6 5 6 5 5 4 1 1 3 3 2 5 7 3 6 3 5 5 9 9 6 3 9 6 7 7 10 6 5 7 6 9 12 7 2 5
17 17 13 11 13 11 9 6 3 2 2 9 9 5 7 4 3 2 5 4 3 5 4 2 2 0 3 5 4 5 3 2 8 5 6 8 2 3 4 6 7 6 5 9 8 5 0
17 16 14 12 12 12 10 8 5 2 4 7 8 9 6 2 2 3 4 2 5 9 8 3 3 2 3 2 4 3 3 3 3 3 3 6 2 4 6 4 3 3 1 5 4 4 5
17 17 16 13 12 13 11 9 6 5 3 6 7 10 5 2 1 5 2 5 6 5 3 2 3 3 3 2 2 2 4 5 5 3 6 8 14 9 6 6 7 5 5 2 2 0 8
18 18 17 14 12 13 11 10 7 5 5 8 9 8 1 1 2 5 4 6 4 3 6 5 3 1 4 2 3 2 3 2 3 1 2 3 7 5 2 12 7 8 10 6 6 5 4
19 19 19 17 15 13 13 11 8 6 4 6 10 2 2 1 3 4 5 2 8 5 3 2 3 1 2 3 3 2 4 5 7 10 8 4 6 3 3 3 7 3 6 13 6 3 2
21 19 18 17 17 17 14 13 11 8 6 6 3 3 2 6 5 4 4 6 4 3 4 4 4 3 4 3 1 1 4 3 5 11 6 4 6 6 6 2 4 8 4 3 4 5 6
21 19 19 20 19 17 16 14 12 10 6 10 3 3 4 8 4 1 6 6 4 5 3 2 3 4 5 3 6 4 5 5 4 2 6 5 5 5 5 1 2 5 3 4 2 3 3
22 21 19 20 20 19 18 16 14 12 10 7 4 2 2 5 4 3 11 5 3 1 2 6 3 5 4 2 3 5 8 8 3 5 7 6 3 2 11 5 6 6 7 2 3 3 3
21 20 20 20 20 19 20 17 15 14 14 4 5 3 2 2 9 10 3 8 15 6 4 2 5 6 4 7 3 8 8 6 9 7 6 6 2 3 7 5 4 4 4 5 4 2 7
22 21 20 20 20 20 19 18 15 13 20 4 3 3 3 6 4 8 11 13 15 6 13 17 10 3 2 2 4 5 2 3 5 3 8 8 6 7 8 6 4 2 4 2 6 5 2
21 22 22 21 20 19 20 18 17 15 19 4 2 5 6 8 11 12 7 3 10 12 12 11 7 21 7 4 4 13 3 9 7 2 4 1 7 3 4 5 3 5 4 6 9 8 8
23 23 22 20 18 19 21 20 19 18 16 5 4 3 0 1 7 18 18 14 23 9 8 8 18 12 15 19 12 3 2 4 7 3 4 0 5 1 4 4 7 10 9 13 13 9 10
23 22 21 20 20 20 23 22 21 21 15 3 2 2 2 5 8 8 16 19 17 18 20 24 21 17 15 26 16 15 17 19 11 7 2 3 3 2 5 4 6 9 16 17 8 7 6
22 22 21 21 19 20 22 23 21 21 20 3 3 2 4 8 11 13 8 14 21 23 27 16 16 19 27 3 5 5 9 14 12 8 7 6 4 2 2 1 5 6 1 3 11 10 8
18 18 21 20 19 19 23 24 21 20 23 4 3 3 3 3 6 10 13 14 16 15 18 22 22 24 5 4 4 4 3 4 5 9 11 6 5 3 3 4 5 6 4 5 5 6 8
21 21 21 18 19 19 25 24 21 20 19 8 5 3 3 3 7 9 7 12 13 11 11 14 13 11 8 4 5 6 5 3 5 3 12 9 8 5 3 3 3 3 2 4 3 5 2
22 21 18 17 18 19 24 23 21 20 19 6 3 5 1 3 6 6 5 4 4 3 4 2 5 7 12 5 4 4 4 4 5 6 5 5 3 11 5 3 5 4 4 4 3 6 4
18 17 17 18 19 21 23 23 22 20 18 10 2 5 3 3 7 7 6 8 4 4 3 2 3 1 4 5 4 4 3 5 3 3 6 8 4 3 3 6 8 6 4 6 3 2 5
13 10 11 8 18 20 20 21 21 21 20 15 3 4 6 6 5 2 8 11 15 11 8 3 0 4 6 3 3 4 2 1 6 4 1 4 6 5 7 5 1 3 1 2 3 4 4
Wind_Direction
191 210 199 220 216 252 280 316 324 344 307 256 258 258 258 258 260 266 282 312 322 337 342 343 349 336 358 2 256 339 101 3 345 14 47 39 53 11 29 336 339 164 314 313 306 294 246
191 200 208 206 190 215 6 334 330 330 341 324 271 256 267 260 258 265 275 298 315 331 336 343 350 336 15 300 43 357 15 350 12 46 36 43 92 159 90 351 31 305 266 275 277 248 240
197 228 214 207 210 163 113 36 349 343 340 350 321 286 270 261 257 254 273 294 305 313 331 335 349 11 325 244 51 8 4 326 309 53 45 109 138 51 152 327 317 290 319 320 237 224 232
216 211 200 186 180 205 205 258 352 5 355 353 347 300 269 256 254 255 253 274 294 307 319 324 336 34 249 266 325 302 169 298 270 261 133 116 110 90 37 329 12 356 54 358 296 95 325
213 199 160 160 154 155 213 247 251 213 1 350 12 4 344 280 272 252 259 282 280 307 300 297 316 49 267 311 278 276 151 188 176 57 68 93 60 88 26 73 5 2 243 220 316 180 238
212 196 178 171 179 203 221 250 304 265 234 310 349 15 358 340 246 258 276 261 284 342 349 175 293 12 279 268 320 22 181 168 126 96 16 57 56 61 46 83 235 246 254 264 244 301 53
217 213 211 192 181 223 228 253 297 311 223 200 306 356 4 27 98 154 300 358 10 327 271 202 209 248 279 304 343 342 156 120 105 81 199 2 83 203 222 197 120 99 284 284 273 263 320
195 221 223 230 225 231 233 241 279 300 320 212 220 360 342 137 138 94 62 167 196 191 301 253 244 260 274 56 329 289 139 157 138 189 136 37 236 238 138 178 205 230 256 266 285 261 188
203 196 207 220 209 226 216 229 355 114 288 275 184 91 74 114 99 53 97 230 4 89 266 284 220 231 232 164 216 251 163 152 161 154 193 191 197 98 175 205 203 222 208 234 234 316 61
210 205 202 204 199 217 196 179 289 318 309 166 122 111 130 129 31 275 268 344 5 74 28 278 259 266 188 163 262 218 203 156 210 200 212 246 248 246 252 219 186 250 208 233 223 164 242
194 197 198 203 199 185 196 169 221 272 79 148 140 151 118 68 152 74 303 294 359 56 357 296 198 159 142 168 295 358 136 113 189 179 138 236 237 193 184 221 175 232 244 206 202 200 69
197 195 195 201 205 188 187 183 196 232 156 179 161 146 137 31 67 294 331 55 50 48 258 333 170 187 107 264 314 78 102 108 195 210 257 245 10 177 211 243 176 7 355 39 52 91 262
198 197 195 194 192 197 191 179 190 201 211 181 188 157 155 118 112 297 18 49 47 138 342 235 229 139 226 218 248 147 169 180 171 153 235 261 258 253 196 270 285 167 94 297 283 125 245
192 196 192 188 195 194 174 173 184 208 223 202 190 153 229 184 50 19 46 61 120 215 264 339 34 94 190 173 258 191 135 228 237 131 78 213 317 191 191 209 210 199 188 190 233 212 263
195 202 188 190 181 181 175 172 183 201 226 165 112 81 133 262 103 57 74 126 210 194 256 306 339 152 273 276 176 135 218 210 213 173 181 193 259 294 175 198 145 255 195 231 251 6 311
194 192 191 196 194 181 178 174 177 185 211 161 127 144 229 112 114 73 86 237 234 241 355 15 200 190 218 264 232 205 210 211 241 194 175 240 294 251 274 285 283 203 171 97 78 224 225
191 195 194 197 193 193 176 176 180 185 184 151 98 114 255 123 77 127 219 225 266 269 51 309 251 271 226 218 197 209 240 275 212 334 171 166 166 250 20 85 127 3 359 98 312 242 232
190 189 195 200 190 188 175 176 185 183 175 148 127 183 251 132 173 188 228 190 273 267 273 264 296 251 229 221 293 239 232 216 158 158 168 220 157 192 248 227 243 180 176 114 199 213 241
193 193 193 190 190 185 176 176 189 192 171 136 157 166 151 150 211 216 249 237 244 244 297 258 250 209 208 197 236 213 248 261 273 195 202 187 236 326 322 345 346 204 194 147 155 267 213
191 195 191 191 190 181 177 179 194 197 185 151 142 146 186 201 228 192 231 237 237 226 246 245 263 309 269 296 240 269 262 283 1 279 248 168 188 183 236 214 185 290 15 290 200 252 247
191 189 185 180 186 181 180 185 191 189 181 117 207 219 182 197 215 223 203 202 219 233 214 202 261 234 222 260 238 245 240 298 290 22 10 192 219 211 244 200 174 206 217 230 218 240 243
187 181 184 183 183 187 185 189 190 185 176 191 170 173 117 175 169 211 222 229 245 234 222 207 241 233 232 239 232 278 271 207 240 351 151 299 241 155 278 240 253 259 242 243 229 230 238
184 186 184 185 190 193 191 194 191 189 176 172 123 311 186 205 214 203 216 230 245 242 246 240 243 240 243 235 237 249 249 259 254 245 225 235 145 137 255 212 233 247 232 216 214 217 187
187 187 189 192 193 196 198 198 194 195 186 155 157 160 204 225 209 220 230 231 239 237 247 248 242 231 239 353 311 289 273 246 230 214 174 149 144 167 254 176 238 246 249 206 221 245 202
180 197 198 195 197 204 201 198 196 200 193 188 175 178 209 256 222 238 246 255 261 262 260 259 241 233 128 176 211 227 228 213 236 237 216 180 136 238 244 210 291 266 192 183 176 284 208
189 205 203 198 203 209 196 198 199 204 207 196 211 178 244 272 204 210 209 226 243 252 265 250 258 204 158 177 192 201 213 177 182 220 208 195 163 201 184 219 250 259 185 150 132 295 128
195 201 196 200 205 207 193 195 201 207 211 181 207 175 249 265 241 250 220 216 187 205 267 232 159 190 168 174 195 168 214 212 173 173 166 163 190 223 207 251 271 233 156 142 86 243 162
179 189 204 205 207 203 191 198 203 207 209 196 186 172 164 250 252 251 237 230 224 182 216 243 101 134 148 183 180 174 174 215 183 202 164 177 172 207 162 222 247 145 94 174 190 56 144
165 160 153 204 200 189 192 200 203 207 203 190 209 188 195 221 288 328 258 262 224 216 205 242 293 174 168 136 225 148 168 119 179 222 155 181 182 185 184 213 157 291 51 78 130 148 172